Regional Weather Roundup
Issued by NWS

Home | Current Version | Previous Version | Graphics & Text | Print | Product List | Glossary On
Versions: 1 2 3 4 5 6 7 8 9 10 11 12 13 14 15 16 17 18 19 20 21 22 23 24 25 26 27 28 29 30 31 32 33 34 35 36 37 38 39 40 41 42 43 44 45 46 47 48 49 50
000
ASUS43 KFSD 091102
RWRSD

WEATHER ROUNDUP FOR SOUTH DAKOTA
NATIONAL WEATHER SERVICE SIOUX FALLS SD
500 AM CST TUE FEB 09 2016

NOTE: "FAIR" INDICATES FEW OR NO CLOUDS BELOW 12,000 FEET WITH NO
SIGNIFICANT WEATHER AND/OR OBSTRUCTIONS TO VISIBILITY.


SDZ001>005-009-010-012>017-091200-
NORTHWEST AND NORTH CENTRAL SOUTH DAKOTA

CITY           SKY/WX    TMP DP  RH WIND       PRES   REMARKS
BUFFALO          N/A     25  14  63 W3        30.14S
FAITH            N/A     28  17  63 NE6       30.22S WCI  22
MOBRIDGE       CLOUDY    23  11  60 N7        30.23F WCI  15
$$

SDZ012>016-024>037-041>051-057-063-072>074-091200-
SOUTHWEST AND SOUTH CENTRAL SOUTH DAKOTA

CITY           SKY/WX    TMP DP  RH WIND       PRES   REMARKS
RAPID CTY ARPT PTCLDY    23  14  68 N6        30.22S WCI  16
PIERRE         CLOUDY    23  13  65 N14       30.27R WCI  11
CUSTER         CLEAR     34  23  64 NW9G23    30.17S WCI  27
ELLSWORTH AFB  CLEAR     24  15  68 SW1       30.21F
PHILIP         CLOUDY    31  20  63 CALM      30.26R
PINE RIDGE     CLEAR     23  17  78 CALM      30.22R
WINNER         CLOUDY    24  14  65 N12       30.25R WCI  13
$$

SDZ004>011-016>023-039-040-091200-
NORTHEAST SOUTH DAKOTA

CITY           SKY/WX    TMP DP  RH WIND       PRES   REMARKS
ABERDEEN       CLOUDY    12   6  77 N7        30.27S WCI   1
WATERTOWN      CLEAR      4  -2  76 N16       30.18R WCI -15
BROOKINGS      CLEAR      5  -1  76 N16G24    30.16R WCI -14
SISSETON         N/A      4   0  83 N14       30.23S WCI -14
$$

SDZ017-020-022-023-036>040-048>070-091200-
SOUTHEAST SOUTH DAKOTA

CITY           SKY/WX    TMP DP  RH WIND       PRES   REMARKS
SIOUX FALLS    CLEAR      8   0  69 N21       30.17R WCI -12
HURON          PTCLDY    13   7  77 N13       30.27R WCI  -2
MITCHELL       PTCLDY    15   9  76 N13       30.28R WCI   1
YANKTON        CLEAR     14   7  73 NW20G25   30.23R WCI  -3
$$

ABBREVIATIONS USED IN REMARKS
   TC - TEMPERATURE IN CELSIUS
  WCI - WIND CHILL INDEX
   HX - HEAT INDEX
  VSB - VISIBILITY




USA.gov is the U.S. government's official web portal to all federal, state and local government web resources and services.